Regional Weather Roundup
Issued by NWS

Home | Current Version | Previous Version | Text Only | Print | Product List | Glossary On
Versions: 1 2 3 4 5 6 7 8 9 10 11 12 13 14 15 16 17 18 19 20 21 22 23 24 25 26 27 28 29 30 31 32 33 34 35 36 37 38 39 40 41 42 43 44 45 46 47 48 49 50
000
ASUS44 KOUN 160910
RWROK

WEATHER ROUNDUP FOR OKLAHOMA
NATIONAL WEATHER SERVICE NORMAN OK
400 AM CDT TUE SEP 16 2014

NOTE: "FAIR" INDICATES FEW OR NO CLOUDS BELOW 12,000 FEET WITH NO
      SIGNIFICANT WEATHER AND/OR OBSTRUCTIONS TO VISIBILITY.

OKZ001>007-009>012-014-015-017-161000-
NORTHWEST OKLAHOMA AND THE PANHANDLE

CITY           SKY/WX    TMP DP  RH WIND       PRES   REMARKS
GAGE           CLOUDY    60  58  92 N5        30.22S
ENID/WOODRING  MOCLDY    64  61  88 NE7       30.16S
$$

OKZ016-021>023-033>039-044-045-161000-
SOUTHWEST OKLAHOMA

CITY           SKY/WX    TMP DP  RH WIND       PRES   REMARKS
LAWTON/REGL    PTCLDY    73  69  87 E3        30.13F
LAWTON/FT SILL PTCLDY    72  69  89 SE2       30.13S
FREDERICK      PTCLDY    72  69  90 E5        30.11R
CLINTON        PTCLDY    68  62  81 N7        30.19F
HOBART         CLOUDY    74  67  78 NE5       30.16S
ALTUS AFB      CLOUDY    73  70  93 N6        30.14S
$$

OKZ018>020-024>031-161000-
CENTRAL OKLAHOMA

CITY           SKY/WX    TMP DP  RH WIND       PRES   REMARKS
OKLAHOMA CITY  MOCLDY    72  68  87 CALM      30.15S
OKC/WILEY POST CLOUDY    71  68  90 CALM      30.15S
OKC/TINKER AFB PTCLDY    70  68  94 E6        30.15S
STILLWATER     CLEAR     66  63  90 NE7       30.15F
GUTHRIE        CLOUDY    70  67  90 NE5       30.15S
$$

OKZ008-013-054>072-161000-
NORTHEAST OKLAHOMA

CITY           SKY/WX    TMP DP  RH WIND       PRES   REMARKS
TULSA          CLOUDY    69  66  90 N7        30.13S
TULSA/JONES    MOCLDY    69  66  90 N3        30.14S
PONCA CITY     CLOUDY    66  60  81 NE8       30.17F
BARTLESVILLE   CLOUDY    66  63  90 N7        30.17F
MUSKOGEE       FOG       65  65 100 S3        30.14F VSB 1/4
$$

OKZ032-040>043-046>053-073>077-161000-
SOUTH CENTRAL/SOUTHEAST OKLAHOMA

CITY           SKY/WX    TMP DP  RH WIND       PRES   REMARKS
ARDMORE/DWNTWN MOCLDY    72  68  88 CALM      30.12S
MCALESTER      PTCLDY    69  67  93 NE3       30.14S
$$




USA.gov is the U.S. government's official web portal to all federal, state and local government web resources and services.